Погода в Зорине

Россия / Курская область     51°10′07″N   36°22′15″E
темп.,
°C
ветер,
м/с
пор.,
м/с
влажн.,
%
обл.,
%
осадки,
мм/ч
давл.,
гПа
погр.,
м
25 февраля, чт
чт2500:00−8ююз4895100 0.3 1033278
03:00−6юз4796100 0.5 1031247
06:00−5юз4796100 0.1 1029267
09:00−2зюз51097100 0.2 1027455
12:00+1зюз611100100 0.0 1026299
15:00+2зюз613100100 0.0 1023338
18:00+2з511100100 0.1 1022256
21:00+2з511100100 0.1 1022269
26 февраля, пт
пт2600:00+2зсз51099100 0.0 1022279
03:00+1з51099100 0.0 1022254
06:00+2з49100100 0.0 1021211
09:00+2з51099100 0.0 1020274
12:00+2зюз613100100 0.0 1018422
15:00+2зюз71499100 0.0 1017437
18:00+2з61398100 0.1 1015372
21:00+2з51298100 0.1 1015374
27 февраля, сб
сб2700:00+1з5129799 0.0 1013408
03:00+1з51196100 0.0 1012420
06:00+1з51195100 0.0 1010431
09:00+1з51195100 0.1 1010574
12:000зсз51098100 0.2 1009549
15:00+1зсз51099100 0.3 1009524
18:00+1зсз61196100 0.1 1009507
21:000сз61097100 0.3 1010573
28 февраля, вс
вс2800:000ссз61195100 0.2 1011584
03:00−1с6109198 0.4 1014751
06:00−4с6128886 0.0 1015754
09:00−4с698592 0.1 1017760
12:00−3ссз5883100 0.1 1019760
15:00−3ссз6886100 0.1 1020732
18:00−3с5987100 0.1 1021808
21:00−3с2895100 0.1 1023588
1 марта, пн
пн100:00−4с249790 0.1 1024202
03:00−4ссв369295 0.2 1026555
06:00−5с379193 0.0 1027355
09:00−4с468496 0.1 1029703
12:00−3с457999 0.1 1031851
15:00−2ссз347799 0.1 1031748
18:00−3сз248985 0.0 1031118
21:00−4зсз338874 0.0 103275